User: anonymous
Location: Caltech
(34.1382°N, 118.1253°W)
Time: 16:57:12
(UTC-07:00)
Language:

Oscar 11 - Orbit

View from above orbital plane
View from above orbital plane
View from above satellite
View from above satellite

Ground track
Ground track

The orbit data is extracted from the following two-line orbital elements,

1 14781U 84021B   14273.38232910  .00001175  00000-0  15549-3 0  6236
2 14781 097.8408 331.3996 0008769 188.9236 171.1823 14.81765386643544
Epoch (UTC): 30 September 2014 09:10:33
Eccentricity: 0.0008769
inclination: 97.8408°
perigee height: 617 km
apogee height: 630 km
right ascension of ascending node: 331.3996°
argument of perigee: 188.9236°
revolutions per day: 14.81765386
mean anomaly at epoch: 171.1823°
orbit number at epoch: 64354

The dashed part of the orbit path shows where the satellite is in the earth's shadow,  

DLR